sat.trackr.live / text

‹ back to catalog

STARLINK-31063

NORAD 58547 · 2023-192S

PAYLOAD ACTIVE UNKNOWN

§ Identity

Operator
Country
US
Launch date
2023-12-08
Launch site
AFWTR
Launch vehicle
Mass (kg)
RCS (m²)

Purposes: comms

External: N2YO · Heavens-Above · Gunter

§ Orbital elements

Epoch: 2026-09-20T07:08:36.631680Z

Period
93.85 min
Inclination
53.1593°
Eccentricity
0.0001264
Mean motion
15.34389350 rev/d
Perigee alt
461.9 km
Apogee alt
463.6 km
Semi-major
6,840.9 km
B*
2.0016e-5
RAAN
226.4957°
Arg perigee
86.4312°
Mean anomaly
273.6835°
Rev number
15,595

§ Raw data

STARLINK-310631 58547U 23192S   26263.29764620  .00000300  00000+0  20016-4 0  99962 58547  53.1593 226.4957 0001264  86.4312 273.6835 15.34389350155959

JSON: /api/v1/satellites/58547 · /tle

For live sub-satellite position, see the globe view (requires WebGL).

§ Visibility from observer

Set your observer location to see the next 7 days of passes ≥ 10°. The values pass through the URL so the page stays shareable.

No JS? Fill the form by hand. The geolocation button needs JavaScript.